Weather History for KLMT - June, 2012

Change the Weather History Date:

Friday, June 8, 2012

  Actual Average Record
Temperature  
Mean Temperature 46 °F 56 °F  
Max Temperature 56 °F 71 °F 94 °F (1955)
Min Temperature 36 °F 41 °F 25 °F (1999)
Degree Days  
Heating Degree Days 19 9  
Month to date heating degree days 108 80  
Since 1 June heating degree days 108 80  
Since 1 July heating degree days 6663 6836  
Cooling Degree Days 0 0  
Month to date cooling degree days 0 0  
Year to date cooling degree days 1 1  
Since 1 June cooling degree days 0 0  
Moisture  
Dew Point 30 °F    
Average Humidity 59    
Maximum Humidity 85    
Minimum Humidity 35    
Precipitation  
Precipitation T in 0.02 in 0.95 in (1977)
Month to date precipitation 0.93 0.13  
Year to date precipitation 5.87 7.92  
Sea Level Pressure  
Sea Level Pressure 29.96 in    
Wind  
Wind Speed 11 mph (WNW)    
Max Wind Speed 28 mph    
Max Gust Speed 35 mph    
Visibility 10 miles    
Events      
T = Trace of Precipitation, MM = Missing Value Source: NWS Daily Summary

Daily Weather History Graph

Daily Weather History Graph

Search for Another Location

Airport or City:

Trip Planner

Search our weather history database for the weather conditions in past years. The results will help you decide how hot, cold, wet, or windy it might be!

Date:

Astronomy

Jun. 08, 2012 Rise Set
Actual Time 5:30 AM PDT 8:41 PM PDT
Civil Twilight 4:56 AM PDT 9:15 PM PDT
Nautical Twilight 4:12 AM PDT 10:00 PM PDT
Astronomical Twilight 3:19 AM PDT 10:53 PM PDT
Moon No Moon Rise 10:20 AM PDT (6/8)
Length of Visible Light 16h 19m
Length of Day
15h 10m
Waning Gibbous, 76% of the Moon is Illuminated
Jun 8
Waning Gibbous
Jun 11
Last Quarter
Jun 19
New
Jun 26
First Quarter
Jul 3
Full

Hourly Weather History & Observations

Time (PDT) Temp. Windchill Dew Point Humidity Pressure Visibility Wind Dir Wind Speed Gust Speed Precip Events Conditions
12:53 AM 39.0 °F - 36.0 °F 89% 29.96 in 10.0 mi Calm Calm - N/A   Clear
1:53 AM 39.0 °F 36.8 °F 35.1 °F 86% 29.95 in 10.0 mi WSW 3.5 mph - N/A   Clear
2:53 AM 39.0 °F 35.7 °F 34.0 °F 82% 29.94 in 10.0 mi NNW 4.6 mph - N/A   Partly Cloudy
3:53 AM 39.0 °F 36.8 °F 33.1 °F 79% 29.94 in 10.0 mi North 3.5 mph - N/A   Clear
4:53 AM 37.9 °F 31.5 °F 32.0 °F 79% 29.94 in 10.0 mi West 9.2 mph - N/A   Clear
5:53 AM 37.0 °F 29.3 °F 30.9 °F 79% 29.95 in 10.0 mi West 11.5 mph - N/A   Clear
6:00 AM 37.4 °F 29.8 °F 30.2 °F 75% 29.99 in 10.0 mi West 11.5 mph - N/A   Partly Cloudy
6:53 AM 37.0 °F 31.0 °F 30.9 °F 79% 29.96 in 10.0 mi West 8.1 mph - N/A   Partly Cloudy
7:53 AM 42.1 °F 34.2 °F 30.0 °F 62% 29.96 in 10.0 mi West 16.1 mph - N/A   Partly Cloudy
8:53 AM 45.0 °F 41.2 °F 30.0 °F 56% 29.98 in 10.0 mi Variable 6.9 mph - N/A   Partly Cloudy
9:53 AM 46.0 °F 43.9 °F 28.0 °F 50% 29.98 in 10.0 mi Variable 4.6 mph 17.3 mph N/A   Scattered Clouds
10:53 AM 48.9 °F - 28.0 °F 44% 29.97 in 10.0 mi West 9.2 mph - N/A   Scattered Clouds
11:53 AM 48.9 °F - 28.0 °F 44% 29.98 in 10.0 mi West 8.1 mph - N/A   Mostly Cloudy
12:53 PM 54.0 °F - 28.0 °F 37% 29.96 in 10.0 mi West 18.4 mph 23.0 mph N/A   Scattered Clouds
1:53 PM 53.1 °F - 28.0 °F 38% 29.97 in 10.0 mi West 10.4 mph 21.9 mph N/A   Mostly Cloudy
2:53 PM 53.1 °F - 28.0 °F 38% 29.96 in 10.0 mi WNW 5.8 mph 23.0 mph N/A   Mostly Cloudy
3:53 PM 55.0 °F - 28.9 °F 37% 29.95 in 10.0 mi Variable 6.9 mph - N/A   Mostly Cloudy
4:53 PM 55.9 °F - 28.9 °F 36% 29.94 in 10.0 mi WNW 15.0 mph 24.2 mph N/A   Mostly Cloudy
5:53 PM 54.0 °F - 28.9 °F 38% 29.94 in 10.0 mi West 15.0 mph - N/A   Mostly Cloudy
6:53 PM 53.1 °F - 30.0 °F 41% 29.93 in 10.0 mi WNW 15.0 mph 20.7 mph N/A   Mostly Cloudy
7:53 PM 48.9 °F - 32.0 °F 52% 29.94 in 10.0 mi WNW 15.0 mph - N/A   Scattered Clouds
8:53 PM 43.0 °F 36.8 °F 32.0 °F 65% 29.95 in 10.0 mi WNW 11.5 mph - N/A   Partly Cloudy
9:53 PM 42.1 °F 36.1 °F 30.0 °F 62% 29.96 in 7.0 mi West 10.4 mph - N/A   Partly Cloudy
10:53 PM 39.9 °F 30.0 °F 28.9 °F 65% 29.99 in 10.0 mi WNW 21.9 mph 27.6 mph N/A   Clear
11:53 PM 39.0 °F 30.3 °F 28.0 °F 65% 30.01 in 10.0 mi West 16.1 mph 27.6 mph N/A   Partly Cloudy